• In Netherlands
  • List of Countries
  • For 7 days
  • Water Temperature
  • Satellite Maps
  • Weather Map
  • Weather Widgets
  • user-avatar
    Login

    Hourly Weather Durres

    Today, 18 November, Saturday

    Time Temperature Precipitation Wind Pressure Humidity
    00:00 +12°C° 0 mm 4 mps 757 mmHg 76%
    01:00 +12°C° 0 mm 4 mps 757 mmHg 77%
    02:00 +12°C° 0 mm 4 mps 757 mmHg 77%
    03:00 +12°C° 0 mm 3 mps 757 mmHg 77%
    04:00 +12°C° 0 mm 3 mps 757 mmHg 77%
    05:00 +11°C° 0.1 mm 3 mps 757 mmHg 77%
    06:00 +11°C° 0.1 mm 3 mps 757 mmHg 77%
    07:00 +11°C° 0.1 mm 3 mps 757 mmHg 77%
    08:00 +13°C° 0 mm 3 mps 757 mmHg 71%
    09:00 +15°C° 0 mm 4 mps 757 mmHg 64%
    10:00 +18°C° 0 mm 4 mps 757 mmHg 58%
    11:00 +18°C° 0 mm 4 mps 757 mmHg 56%
    12:00 +19°C° 0 mm 4 mps 757 mmHg 53%
    13:00 +19°C° 0 mm 4 mps 757 mmHg 51%
    14:00 +19°C° 0 mm 4 mps 757 mmHg 56%
    15:00 +18°C° 0 mm 4 mps 757 mmHg 60%
    16:00 +17°C° 0 mm 4 mps 757 mmHg 65%
    17:00 +15°C° 0 mm 4 mps 757 mmHg 67%
    18:00 +14°C° 0 mm 4 mps 757 mmHg 69%
    19:00 +13°C° 0 mm 4 mps 757 mmHg 72%
    20:00 +13°C° 0 mm 4 mps 758 mmHg 73%
    21:00 +13°C° 0 mm 4 mps 758 mmHg 73%
    22:00 +12°C° 0 mm 4 mps 758 mmHg 74%
    23:00 +12°C° 0 mm 4 mps 758 mmHg 75%

    Tomorrow, 19 November, Sunday

    Time Temperature Precipitation Wind Pressure Humidity
    00:00 +12°C° 0 mm 4 mps 758 mmHg 76%
    01:00 +12°C° 0 mm 4 mps 758 mmHg 76%
    02:00 +11°C° 0 mm 4 mps 758 mmHg 77%
    03:00 +11°C° 0 mm 4 mps 758 mmHg 78%
    04:00 +11°C° 0 mm 4 mps 757 mmHg 78%
    05:00 +11°C° 0.1 mm 3 mps 758 mmHg 78%
    06:00 +11°C° 0.1 mm 3 mps 758 mmHg 78%
    07:00 +11°C° 0.1 mm 3 mps 758 mmHg 78%
    08:00 +12°C° 0 mm 3 mps 758 mmHg 73%
    09:00 +14°C° 0 mm 2 mps 758 mmHg 68%
    10:00 +16°C° 0 mm 2 mps 758 mmHg 64%
    11:00 +16°C° 0 mm 2 mps 758 mmHg 63%
    12:00 +16°C° 0 mm 2 mps 758 mmHg 62%
    13:00 +16°C° 0 mm 2 mps 758 mmHg 61%
    14:00 +16°C° 0 mm 3 mps 757 mmHg 64%
    15:00 +14°C° 0 mm 3 mps 757 mmHg 68%
    16:00 +13°C° 0 mm 4 mps 757 mmHg 71%
    17:00 +13°C° 0.1 mm 4 mps 757 mmHg 74%
    18:00 +12°C° 0.1 mm 4 mps 758 mmHg 77%
    19:00 +12°C° 0.1 mm 4 mps 758 mmHg 80%
    20:00 +10°C° 0.3 mm 5 mps 758 mmHg 84%
    21:00 +10°C° 0.3 mm 5 mps 758 mmHg 87%
    22:00 +9°C° 0.3 mm 6 mps 759 mmHg 90%
    23:00 +9°C° 0.2 mm 6 mps 759 mmHg 90%

    Day after tomorrow, 20 November, Monday

    Time Temperature Precipitation Wind Pressure Humidity
    00:00 +9°C° 0.2 mm 6 mps 759 mmHg 91%
    01:00 +9°C° 0.2 mm 7 mps 759 mmHg 91%
    02:00 +8°C° 0.3 mm 7 mps 759 mmHg 91%
    03:00 +8°C° 0.3 mm 7 mps 760 mmHg 90%
    04:00 +8°C° 0.3 mm 7 mps 760 mmHg 90%
    05:00 +7°C° 0.1 mm 6 mps 760 mmHg 88%
    06:00 +7°C° 0.1 mm 6 mps 761 mmHg 86%
    07:00 +5°C° 0.1 mm 6 mps 761 mmHg 84%
    08:00 +8°C° 0 mm 6 mps 762 mmHg 74%
    09:00 +9°C° 0 mm 6 mps 763 mmHg 64%
    10:00 +10°C° 0 mm 6 mps 763 mmHg 54%
    11:00 +11°C° 0 mm 6 mps 763 mmHg 49%
    12:00 +11°C° 0 mm 6 mps 763 mmHg 44%
    13:00 +11°C° 0 mm 6 mps 763 mmHg 40%
    14:00 +10°C° 0 mm 6 mps 763 mmHg 43%
    15:00 +9°C° 0 mm 6 mps 764 mmHg 47%
    16:00 +8°C° 0 mm 6 mps 764 mmHg 51%
    17:00 +8°C° 0 mm 5 mps 764 mmHg 52%
    18:00 +7°C° 0 mm 5 mps 765 mmHg 53%
    19:00 +6°C° 0 mm 5 mps 765 mmHg 54%
    20:00 +6°C° 0 mm 4 mps 766 mmHg 54%
    21:00 +5°C° 0 mm 4 mps 766 mmHg 54%
    22:00 +5°C° 0 mm 4 mps 766 mmHg 53%
    23:00 +5°C° 0 mm 4 mps 766 mmHg 53%

    21 November, Tuesday

    Time Temperature Precipitation Wind Pressure Humidity
    00:00 +5°C° 0 mm 3 mps 766 mmHg 52%
    01:00 +5°C° 0 mm 3 mps 766 mmHg 51%
    02:00 +5°C° 0 mm 3 mps 766 mmHg 50%
    03:00 +5°C° 0 mm 3 mps 766 mmHg 49%
    04:00 +6°C° 0 mm 2 mps 765 mmHg 49%
    05:00 +6°C° 0 mm 2 mps 765 mmHg 48%
    06:00 +6°C° 0 mm 2 mps 765 mmHg 47%
    07:00 +5°C° 0 mm 3 mps 766 mmHg 46%
    08:00 +8°C° 0 mm 2 mps 765 mmHg 43%
    09:00 +10°C° 0 mm 2 mps 765 mmHg 40%
    10:00 +13°C° 0 mm 2 mps 765 mmHg 37%
    11:00 +13°C° 0 mm 2 mps 765 mmHg 37%
    12:00 +14°C° 0 mm 2 mps 765 mmHg 37%
    13:00 +14°C° 0 mm 1 mps 765 mmHg 37%
    14:00 +13°C° 0 mm 2 mps 765 mmHg 42%
    15:00 +12°C° 0 mm 2 mps 765 mmHg 47%
    16:00 +10°C° 0 mm 2 mps 765 mmHg 52%
    17:00 +9°C° 0 mm 2 mps 765 mmHg 53%
    18:00 +9°C° 0 mm 2 mps 765 mmHg 53%
    19:00 +8°C° 0 mm 2 mps 765 mmHg 54%
    20:00 +8°C° 0 mm 2 mps 765 mmHg 55%
    21:00 +8°C° 0 mm 2 mps 765 mmHg 56%
    22:00 +8°C° 0 mm 2 mps 766 mmHg 57%
    23:00 +8°C° 0 mm 2 mps 766 mmHg 58%

    22 November, Wednesday

    Time Temperature Precipitation Wind Pressure Humidity
    00:00 +7°C° 0 mm 2 mps 766 mmHg 59%
    01:00 +7°C° 0 mm 2 mps 765 mmHg 60%
    02:00 +7°C° 0 mm 2 mps 765 mmHg 61%
    03:00 +7°C° 0 mm 2 mps 765 mmHg 61%
    04:00 +7°C° 0 mm 2 mps 765 mmHg 62%
    05:00 +7°C° 0 mm 2 mps 765 mmHg 62%
    06:00 +7°C° 0 mm 2 mps 765 mmHg 62%
    07:00 +8°C° 0 mm 2 mps 765 mmHg 62%
    08:00 +10°C° 0 mm 2 mps 766 mmHg 56%
    09:00 +13°C° 0 mm 2 mps 766 mmHg 51%
    10:00 +15°C° 0 mm 1 mps 766 mmHg 46%
    11:00 +15°C° 0 mm 1 mps 765 mmHg 46%
    12:00 +16°C° 0 mm 1 mps 765 mmHg 46%
    13:00 +17°C° 0 mm 2 mps 765 mmHg 46%
    14:00 +15°C° 0 mm 2 mps 765 mmHg 52%
    15:00 +14°C° 0 mm 2 mps 765 mmHg 59%
    16:00 +13°C° 0 mm 2 mps 765 mmHg 66%
    17:00 +13°C° 0 mm 2 mps 765 mmHg 67%
    18:00 +12°C° 0 mm 1 mps 766 mmHg 68%
    19:00 +11°C° 0 mm 1 mps 766 mmHg 68%
    20:00 +11°C° 0 mm 1 mps 766 mmHg 67%
    21:00 +11°C° 0 mm 1 mps 766 mmHg 66%
    22:00 +11°C° 0 mm 1 mps 766 mmHg 65%
    23:00 +11°C° 0 mm 1 mps 766 mmHg 64%

    23 November, Thursday

    Time Temperature Precipitation Wind Pressure Humidity
    00:00 +11°C° 0 mm 1 mps 767 mmHg 63%
    01:00 +11°C° 0 mm 1 mps 767 mmHg 62%
    02:00 +10°C° 0 mm 1 mps 767 mmHg 61%
    03:00 +10°C° 0 mm 1 mps 767 mmHg 61%
    04:00 +10°C° 0 mm 1 mps 767 mmHg 60%
    05:00 +9°C° 0 mm 2 mps 767 mmHg 60%
    06:00 +9°C° 0 mm 2 mps 767 mmHg 59%
    07:00 +9°C° 0 mm 2 mps 767 mmHg 59%
    08:00 +12°C° 0 mm 2 mps 767 mmHg 53%
    09:00 +14°C° 0 mm 1 mps 767 mmHg 48%
    10:00 +18°C° 0 mm 1 mps 768 mmHg 43%
    11:00 +18°C° 0 mm 1 mps 767 mmHg 42%
    12:00 +19°C° 0 mm 1 mps 767 mmHg 42%
    13:00 +19°C° 0 mm 1 mps 767 mmHg 41%
    14:00 +18°C° 0 mm 1 mps 767 mmHg 47%
    15:00 +15°C° 0 mm 1 mps 767 mmHg 53%
    16:00 +14°C° 0 mm 1 mps 767 mmHg 59%
    17:00 +13°C° 0 mm 1 mps 767 mmHg 60%
    18:00 +13°C° 0 mm 1 mps 768 mmHg 61%
    19:00 +12°C° 0 mm 1 mps 768 mmHg 62%
    20:00 +12°C° 0 mm 2 mps 768 mmHg 61%
    21:00 +12°C° 0 mm 2 mps 768 mmHg 60%
    22:00 +12°C° 0 mm 2 mps 768 mmHg 59%
    23:00 +10°C° 0 mm 2 mps 768 mmHg 58%
    Show more